| time (UTC) | temp C | wind direction | speed KPH | gust KPH | rain 1hr cm | rain 24hr cm | rain mn cm | humidity % | barometer mb |
| 20260906224548 | 33 | 128 | 16.1 | 25.7 | 0.00 | 0.00 | 0.00 | 16 | 1002.7 |
| 20260906223058 | 33 | 163 | 6.4 | 19.3 | 0.00 | 0.00 | 0.00 | 16 | 1002.9 |
| 20260906221544 | 32 | 201 | 4.8 | 14.5 | 0.00 | 0.00 | 0.00 | 17 | 1003.2 |
| 20260906220046 | 33 | 140 | 12.9 | 24.1 | 0.00 | 0.00 | 0.00 | 17 | 1003.5 |
| 20260906214557 | 33 | 232 | 12.9 | 24.1 | 0.00 | 0.00 | 0.00 | 16 | 1003.7 |
| 20260906213040 | 32 | 158 | 11.3 | 27.4 | 0.00 | 0.00 | 0.00 | 16 | 1003.8 |
| 20260906211543 | 32 | 147 | 17.7 | 27.4 | 0.00 | 0.00 | 0.00 | 16 | 1004.1 |
| 20260906204536 | 32 | 99 | 6.4 | 22.5 | 0.00 | 0.00 | 0.00 | 20 | 1004.1 |
| 20260906203039 | 33 | 61 | 6.4 | 16.1 | 0.00 | 0.00 | 0.00 | 19 | 1004.5 |
| 20260906201543 | 31 | 132 | 6.4 | 17.7 | 0.00 | 0.00 | 0.00 | 20 | 1005.0 |
| 20260906200027 | 31 | 144 | 11.3 | 17.7 | 0.00 | 0.00 | 0.00 | 21 | 1005.4 |
| 20260906194525 | 30 | 159 | 4.8 | 12.9 | 0.00 | 0.00 | 0.00 | 25 | 1005.6 |
| 20260906193025 | 30 | 123 | 0.0 | 6.4 | 0.00 | 0.00 | 0.00 | 27 | 1005.8 |
| 20260906191519 | 29 | 34 | 1.6 | 8.0 | 0.00 | 0.00 | 0.00 | 28 | 1006.1 |
| 20260906190015 | 28 | 206 | 3.2 | 11.3 | 0.00 | 0.00 | 0.00 | 30 | 1006.6 |
| 20260906184512 | 28 | 135 | 0.0 | 11.3 | 0.00 | 0.00 | 0.00 | 31 | 1006.9 |
| 20260906183009 | 27 | 152 | 1.6 | 14.5 | 0.00 | 0.00 | 0.00 | 33 | 1007.3 |
| 20260906181506 | 26 | 64 | 1.6 | 8.0 | 0.00 | 0.00 | 0.00 | 34 | 1007.7 |
| 20260906180004 | 26 | 36 | 0.0 | 6.4 | 0.00 | 0.00 | 0.00 | 35 | 1008.1 |
| 20260906174604 | 25 | 131 | 3.2 | 8.0 | 0.00 | 0.00 | 0.00 | 35 | 1008.5 |
| 20260906173100 | 25 | 92 | 0.0 | 6.4 | 0.00 | 0.00 | 0.00 | 39 | 1008.8 |
| 20260906171555 | 24 | 151 | 4.8 | 8.0 | 0.00 | 0.00 | 0.00 | 39 | 1009.0 |
| 20260906170052 | 23 | 116 | 0.0 | 6.4 | 0.00 | 0.00 | 0.00 | 40 | 1009.3 |
| 20260906164551 | 23 | 125 | 4.8 | 9.7 | 0.00 | 0.00 | 0.00 | 41 | 1009.6 |
| 20260906163055 | 22 | 134 | 0.0 | 8.0 | 0.00 | 0.00 | 0.00 | 42 | 1009.9 |
| 20260906161546 | 22 | 135 | 0.0 | 6.4 | 0.00 | 0.00 | 0.00 | 42 | 1010.2 |
| 20260906160045 | 21 | 26 | 0.0 | 3.2 | 0.00 | 0.00 | 0.00 | 42 | 1010.4 |
| 20260906154545 | 20 | 232 | 0.0 | 3.2 | 0.00 | 0.00 | 0.00 | 42 | 1010.5 |
| 20260906153102 | 18 | 149 | 0.0 | 4.8 | 0.00 | 0.00 | 0.00 | 44 | 1010.5 |
| 20260906151552 | 17 | 175 | 1.6 | 4.8 | 0.00 | 0.00 | 0.00 | 46 | 1010.6 |
| 20260906150041 | 16 | 137 | 1.6 | 6.4 | 0.00 | 0.00 | 0.00 | 48 | 1010.8 |
| 20260906144541 | 15 | 131 | 0.0 | 3.2 | 0.00 | 0.00 | 0.00 | 51 | 1011.1 |
| 20260906143043 | 14 | 145 | 1.6 | 4.8 | 0.00 | 0.00 | 0.00 | 53 | 1011.1 |
| 20260906141536 | 13 | 124 | 0.0 | 1.6 | 0.00 | 0.00 | 0.00 | 53 | 1011.2 |
| 20260906140036 | 12 | 229 | 0.0 | 0.0 | 0.00 | 0.00 | 0.00 | 58 | 1011.3 |
| 20260906134539 | 11 | 229 | 0.0 | 1.6 | 0.00 | 0.00 | 0.00 | 61 | 1011.3 |
| 20260906133031 | 10 | 205 | 0.0 | 1.6 | 0.00 | 0.00 | 0.00 | 64 | 1011.2 |
| 20260906131528 | 10 | 254 | 0.0 | 0.0 | 0.00 | 0.00 | 0.00 | 60 | 1011.1 |
| 20260906130024 | 10 | 254 | 0.0 | 0.0 | 0.00 | 0.00 | 0.00 | 58 | 1010.9 |
| 20260906124524 | 12 | 130 | 0.0 | 3.2 | 0.00 | 0.00 | 0.00 | 56 | 1010.8 |
| 20260906123037 | 12 | 137 | 3.2 | 6.4 | 0.00 | 0.00 | 0.00 | 57 | 1010.8 |
| 20260906121522 | 12 | 132 | 3.2 | 6.4 | 0.00 | 0.00 | 0.00 | 55 | 1010.8 |
| 20260906120021 | 11 | 155 | 3.2 | 4.8 | 0.00 | 0.00 | 0.00 | 55 | 1010.8 |
| 20260906114523 | 12 | 148 | 3.2 | 4.8 | 0.00 | 0.00 | 0.00 | 55 | 1010.8 |
| 20260906113019 | 12 | 90 | 0.0 | 0.0 | 0.00 | 0.00 | 0.00 | 54 | 1010.7 |
| 20260906111521 | 13 | 139 | 0.0 | 1.6 | 0.00 | 0.00 | 0.00 | 57 | 1010.8 |
| 20260906110016 | 12 | 139 | 0.0 | 1.6 | 0.00 | 0.00 | 0.00 | 57 | 1010.6 |
| 20260906104512 | 13 | 128 | 0.0 | 1.6 | 0.00 | 0.00 | 0.00 | 53 | 1010.4 |
| 20260906103011 | 14 | 128 | 0.0 | 0.0 | 0.00 | 0.00 | 0.00 | 54 | 1010.1 |
| 20260906101519 | 13 | 128 | 0.0 | 0.0 | 0.00 | 0.00 | 0.00 | 56 | 1010.0 |
| 20260906100007 | 13 | 128 | 0.0 | 0.0 | 0.00 | 0.00 | 0.00 | 55 | 1009.9 |
| 20260906094505 | 13 | 128 | 0.0 | 0.0 | 0.00 | 0.00 | 0.00 | 53 | 1009.9 |
| 20260906093004 | 15 | 128 | 0.0 | 1.6 | 0.00 | 0.00 | 0.00 | 51 | 1009.8 |
| 20260906091502 | 15 | 128 | 0.0 | 1.6 | 0.00 | 0.00 | 0.00 | 53 | 1009.8 |
| 20260906090116 | 16 | 73 | 0.0 | 3.2 | 0.00 | 0.00 | 0.00 | 50 | 1009.7 |
| 20260906084557 | 16 | 219 | 1.6 | 4.8 | 0.00 | 0.00 | 0.00 | 48 | 1009.6 |
| 20260906083055 | 16 | 139 | 0.0 | 1.6 | 0.00 | 0.00 | 0.00 | 48 | 1009.7 |
| 20260906081557 | 17 | 174 | 1.6 | 1.6 | 0.00 | 0.00 | 0.00 | 47 | 1009.5 |
| 20260906080110 | 16 | 211 | 1.6 | 1.6 | 0.00 | 0.00 | 0.00 | 47 | 1009.5 |
| 20260906074606 | 17 | 256 | 0.0 | 1.6 | 0.00 | 0.00 | 0.00 | 47 | 1009.4 |
| 20260906073106 | 16 | 232 | 0.0 | 0.0 | 0.00 | 0.00 | 0.00 | 47 | 1009.5 |
| 20260906071549 | 17 | 232 | 0.0 | 3.2 | 0.00 | 0.00 | 0.00 | 46 | 1009.4 |
| 20260906070046 | 18 | 242 | 0.0 | 3.2 | 0.00 | 0.00 | 0.00 | 44 | 1009.4 |
| 20260906064546 | 18 | 264 | 0.0 | 1.6 | 0.00 | 0.00 | 0.00 | 45 | 1009.3 |
| 20260906063048 | 18 | 202 | 0.0 | 1.6 | 0.00 | 0.00 | 0.00 | 44 | 1009.1 |
| 20260906061541 | 18 | 208 | 1.6 | 3.2 | 0.00 | 0.00 | 0.00 | 43 | 1009.0 |
| 20260906060036 | 19 | 222 | 0.0 | 1.6 | 0.00 | 0.00 | 0.00 | 41 | 1008.9 |
| 20260906054538 | 20 | 170 | 0.0 | 3.2 | 0.00 | 0.00 | 0.00 | 41 | 1009.0 |
| 20260906053036 | 21 | 147 | 1.6 | 6.4 | 0.00 | 0.00 | 0.00 | 39 | 1008.9 |
| 20260906051552 | 21 | 129 | 1.6 | 3.2 | 0.00 | 0.00 | 0.00 | 38 | 1008.8 |
| 20260906050040 | 21 | 125 | 0.0 | 3.2 | 0.00 | 0.00 | 0.00 | 38 | 1008.8 |
| 20260906044544 | 22 | 123 | 0.0 | 1.6 | 0.00 | 0.00 | 0.00 | 37 | 1008.6 |
| 20260906043046 | 22 | 123 | 0.0 | 3.2 | 0.00 | 0.00 | 0.00 | 37 | 1008.3 |
| 20260906041535 | 22 | 142 | 1.6 | 3.2 | 0.00 | 0.00 | 0.00 | 36 | 1008.2 |
| 20260906040038 | 22 | 220 | 0.0 | 0.0 | 0.00 | 0.00 | 0.00 | 36 | 1007.9 |
| 20260906034540 | 22 | 335 | 0.0 | 1.6 | 0.00 | 0.00 | 0.00 | 36 | 1007.6 |
| 20260906033035 | 24 | 334 | 4.8 | 9.7 | 0.00 | 0.00 | 0.00 | 33 | 1007.4 |
| 20260906031539 | 25 | 360 | 9.7 | 17.7 | 0.00 | 0.00 | 0.00 | 33 | 1007.1 |
| 20260906030034 | 25 | 336 | 6.4 | 20.9 | 0.00 | 0.00 | 0.00 | 32 | 1007.1 |
| 20260906024633 | 25 | 347 | 12.9 | 27.4 | 0.00 | 0.00 | 0.00 | 31 | 1006.8 |
| 20260906023032 | 26 | 355 | 24.1 | 32.2 | 0.00 | 0.00 | 0.00 | 31 | 1006.3 |
| 20260906021531 | 28 | 19 | 0.0 | 4.8 | 0.00 | 0.00 | 0.00 | 21 | 1005.8 |
| 20260906020030 | 27 | 156 | 4.8 | 4.8 | 0.00 | 0.00 | 0.00 | 23 | 1005.4 |
| 20260906014532 | 28 | 165 | 4.8 | 6.4 | 0.00 | 0.00 | 0.00 | 23 | 1005.3 |
| 20260906013044 | 30 | 137 | 4.8 | 11.3 | 0.00 | 0.00 | 0.00 | 22 | 1005.1 |
| 20260906011529 | 30 | 146 | 6.4 | 11.3 | 0.00 | 0.00 | 0.00 | 21 | 1005.2 |
| 20260906010030 | 32 | 198 | 9.7 | 12.9 | 0.00 | 0.00 | 0.00 | 19 | 1005.2 |
| 20260906004529 | 32 | 161 | 9.7 | 17.7 | 0.00 | 0.00 | 0.00 | 19 | 1005.1 |
| 20260906003028 | 33 | 159 | 8.0 | 19.3 | 0.00 | 0.00 | 0.00 | 19 | 1005.2 |
| 20260906001527 | 33 | 215 | 8.0 | 19.3 | 0.00 | 0.00 | 0.00 | 19 | 1005.2 |
| 20260906000027 | 33 | 157 | 14.5 | 24.1 | 0.00 | 0.00 | 0.00 | 19 | 1005.2 |
| 20260905234527 | 33 | 112 | 4.8 | 24.1 | 0.00 | 0.00 | 0.00 | 19 | 1005.2 |
| 20260905233026 | 33 | 200 | 11.3 | 17.7 | 0.00 | 0.00 | 0.00 | 19 | 1005.2 |
| 20260905231528 | 32 | 149 | 9.7 | 16.1 | 0.00 | 0.00 | 0.00 | 20 | 1005.3 |
| 20260905230025 | 33 | 138 | 4.8 | 16.1 | 0.00 | 0.00 | 0.00 | 20 | 1005.2 |